Home   Weather   Silverstone   Past weeks

Flag for United Kingdom Past Weather in Silverstone, England, United Kingdom — Yesterday and Last 2 Weeks

Now
66 °F

Passing clouds.


Feels Like: 66 °F
Forecast: 53 / 64 °F
Wind: 16 mph from Southwest

Location: Cranfield

Current Time: Jul 27, 2017 at 5:44:27 pm

Latest Report: Jul 27, 2017 at 5:20 pm


Visibility: N/A

Pressure: 29.65 "Hg

Humidity: 68%

Dew Point: 55 °F

Location of SilverstoneLocation

Past Weather in Silverstone — Graph

°F

Silverstone Temperature Yesterday

Maximum temperature yesterday: 72 °F (at 2:50 pm)
Minimum temperature yesterday: 63 °F (at 10:50 am)
Average temperature yesterday: 67 °F

High & Low Weather Summary for the Past Weeks

 TemperatureHumidityPressure
High79 °F (Jul 17, 4:20 pm)100% (Jul 20, 9:20 am)30.27 "Hg (Jul 20, 9:20 am)
Low55 °F (Jul 22, 5:20 pm)34% (Jul 17, 4:20 pm)29.62 "Hg (Jul 20, 7:50 am)
Average66 °F72%29.93 "Hg
* Reported Jul 12 4:20 pm — Jul 27 4:20 pm, Silverstone. Weather by CustomWeather, © 2017

Note: Actual official high and low records may vary slightly from our data, if they occured in-between our weather recording intervals... More about our weather records

Advertising

Silverstone Weather History for the Previous 24 Hours

Scroll right to see more
 ConditionsComfort  
Time TempWeatherWind HumidityBarometerVisibility
4:20 pm
Thu, Jul 27
61 °FPassing clouds.17 mph72%29.65 "HgN/A
3:50 pm63 °FScattered clouds.5 mph88%29.68 "HgN/A
3:20 pm61 °FScattered clouds.6 mph94%29.68 "HgN/A
2:50 pm63 °FScattered clouds.8 mph77%29.65 "HgN/A
2:20 pm63 °FScattered showers. Scattered clouds.14 mph77%29.65 "HgN/A
1:50 pm68 °FScattered clouds.14 mph60%29.65 "HgN/A
1:20 pm68 °FPassing clouds.14 mph60%29.65 "HgN/A
12:50 pm66 °FScattered clouds.17 mph64%29.68 "HgN/A
12:20 pm63 °FScattered clouds.12 mph77%29.68 "HgN/A
11:50 am63 °FScattered clouds.10 mph77%29.68 "HgN/A
11:20 am63 °FScattered clouds.9 mph77%29.68 "HgN/A
10:50 am61 °FPartly sunny.14 mph83%29.68 "HgN/A
10:20 am61 °FPartly sunny.17 mph83%29.68 "HgN/A
9:50 am61 °FScattered clouds.16 mph83%29.71 "HgN/A
9:20 am59 °FPassing clouds.10 mph82%29.71 "HgN/A
8:20 am59 °FScattered clouds.13 mph88%29.71 "HgN/A
7:50 am57 °FPassing clouds.9 mph94%29.71 "HgN/A
5:50 pm
Wed, Jul 26
66 °FScattered clouds.10 mph94%29.62 "HgN/A
5:20 pm66 °FSprinkles. Partly sunny.17 mph94%29.62 "Hg2 mi
Weather by CustomWeather, © 2017

See weather overviewHow to use our weather pages